Find Kinshachi 2

NORAD ID: 41338 Int'l Des: 2016-012 Owner: NAG Country: J operational
LEOCIRCULAR

現在のビュー

3D地球を読み込み中...

Kinshachi 2について

説明を読み込み中...

次回通過

Passes for default location (London). Set your location on the main map for personalized predictions.

高度履歴

Loading altitude history...

軌道要素

1 41338U 16012B 26149.17662512 .00007097 00000-0 30965-3 0 9990
2 41338 30.9975 86.1223 0009049 245.6709 114.2987 15.20657800565520
Epoch: May 29, 2026 • Age: 21 hours

現在のステータス

高度 504.3 km
速度 7.61 km/s
衛星直下点 3.90°N, 171.82°W
打ち上げ日 Feb 17, 2016
運用期間 10.2 years
タイプ other

技術仕様

分類 Payload
質量 50.00 kg
乾燥質量 50.00 kg
総質量 50.00 kg
長さ 0.60 m
直径 0.50 m
スパン 0.60 m
形状 Box
製造者 NAG
フェーズステータス In Orbit
所有者/国 NAG/J

Most Searched